Lamar, CO

6:29 AM MDT on June 22, 2017 (GMT -0600)
Lamar Municipal

Weather History for KLAA - January, 2013

Change the Weather History Date:

Tuesday, January 8, 2013

  Actual Average Record
Temperature  
Mean Temperature 35 °F 28 °F  
Max Temperature 55 °F 44 °F 70 °F (1948)
Min Temperature 15 °F 12 °F -14 °F (1988)
Degree Days  
Heating Degree Days 30 37  
Month to date heating degree days 333 296  
Since 1 July heating degree days 2483 2609  
Cooling Degree Days 0 0  
Month to date cooling degree days 0 0  
Year to date cooling degree days 0 0  
Moisture  
Dew Point 18 °F    
Average Humidity 60    
Maximum Humidity 92    
Minimum Humidity 28    
Precipitation  
Precipitation 0.00 in 0.01 in 1.15 in (1939)
Month to date precipitation T 0.05  
Year to date precipitation T 0.05  
Sea Level Pressure  
Sea Level Pressure 30.02 in    
Wind  
Wind Speed 5 mph (SW)    
Max Wind Speed 16 mph    
Max Gust Speed 17 mph    
Visibility 10 miles    
Events      
T = Trace of Precipitation, MM = Missing Value Source: NWS Daily Summary

Daily Weather History Graph

Daily Weather History Graph

Search for Another Location

Airport or City:

Trip Planner

Search our weather history database for the weather conditions in past years. The results will help you decide how hot, cold, wet, or windy it might be!

Date:

Astronomy

Jan. 08, 2013 Rise Set
Actual Time 7:07 AM MST 4:48 PM MST
Civil Twilight 6:38 AM MST 5:17 PM MST
Nautical Twilight 6:05 AM MST 5:50 PM MST
Astronomical Twilight 5:33 AM MST 6:22 PM MST
Moon 3:42 AM MST (1/8) 1:52 PM MST (1/8)
Length of Visible Light 10h 39m
Length of Day
9h 41m
Waning Crescent, 13% of the Moon is Illuminated
Jan 8
Waning Crescent
Jan 11
New
Jan 18
First Quarter
Jan 26
Full
Feb 3
Last Quarter

Hourly Weather History & Observations

Time (MST) Temp. Windchill Dew Point Humidity Pressure Visibility Wind Dir Wind Speed Gust Speed Precip Events Conditions
12:53 AM 23.0 °F 13.9 °F 19.0 °F 85% 29.85 in 10.0 mi South 8.1 mph - N/A   Clear
1:53 AM 19.0 °F 12.3 °F 16.0 °F 88% 29.85 in 10.0 mi SSW 4.6 mph - N/A   Clear
2:53 AM 18.0 °F 7.7 °F 14.0 °F 84% 29.85 in 10.0 mi WSW 8.1 mph - N/A   Clear
3:53 AM 18.0 °F 7.7 °F 12.9 °F 81% 29.85 in 10.0 mi WSW 8.1 mph - N/A   Clear
4:53 AM 18.0 °F 7.7 °F 10.9 °F 74% 29.84 in 10.0 mi SSW 8.1 mph - N/A   Clear
5:53 AM 18.0 °F 5.4 °F 9.0 °F 68% 29.86 in 10.0 mi WSW 11.5 mph - N/A   Clear
6:53 AM 16.0 °F 5.3 °F 8.1 °F 71% 29.92 in 10.0 mi West 8.1 mph - N/A   Clear
7:53 AM 19.0 °F 11.1 °F 10.9 °F 71% 29.92 in 10.0 mi SW 5.8 mph - N/A   Clear
8:53 AM 24.1 °F 15.2 °F 12.9 °F 62% 29.97 in 10.0 mi West 8.1 mph - N/A   Clear
9:53 AM 32.0 °F 24.8 °F 14.0 °F 48% 29.99 in 10.0 mi West 8.1 mph - N/A   Clear
10:53 AM 44.1 °F 41.5 °F 16.0 °F 32% 29.94 in 10.0 mi SSW 4.6 mph - N/A   Clear
11:53 AM 48.0 °F - 19.0 °F 32% 29.93 in 10.0 mi Calm Calm - N/A   Clear
12:53 PM 51.1 °F - 21.0 °F 31% 29.94 in 10.0 mi Calm Calm - N/A   Clear
1:53 PM 53.1 °F - 21.9 °F 30% 29.96 in 10.0 mi Calm Calm - N/A   Clear
2:53 PM 54.0 °F - 21.9 °F 29% 30.00 in 10.0 mi ENE 11.5 mph - N/A   Clear
3:53 PM 51.1 °F - 23.0 °F 33% 30.04 in 10.0 mi East 8.1 mph - N/A   Clear
4:53 PM 39.9 °F 35.8 °F 25.0 °F 55% 30.11 in 10.0 mi East 5.8 mph - N/A   Clear
5:53 PM 37.0 °F 34.5 °F 25.0 °F 62% 30.16 in 10.0 mi East 3.5 mph - N/A   Clear
6:53 PM 28.0 °F - 23.0 °F 81% 30.22 in 10.0 mi Calm Calm - N/A   Clear
7:53 PM 34.0 °F - 24.1 °F 67% 30.22 in 10.0 mi Calm Calm - N/A   Clear
8:53 PM 26.1 °F 21.9 °F 21.9 °F 84% 30.25 in 10.0 mi SW 3.5 mph - N/A   Clear
9:53 PM 21.9 °F - 19.0 °F 89% 30.28 in 10.0 mi Calm Calm - N/A   Clear
10:53 PM 23.0 °F 18.4 °F 19.0 °F 85% 30.27 in 10.0 mi West 3.5 mph - N/A   Clear
11:53 PM 19.9 °F 14.9 °F 17.1 °F 89% 30.27 in 10.0 mi WSW 3.5 mph - N/A   Clear